User: anonymous
Location: Fort Wayne
(41.1310°N, 85.1290°W)
Time: 19:57:19
(UTC-04:00)
Language:

Cosmos 1980 - Orbit

View from above orbital plane
View from above orbital plane
View from above satellite
View from above satellite

Ground track
Ground track

The orbit data is extracted from the following two-line orbital elements,

1 19649U 88102A   14293.54776605 -.00000132  00000-0 -43784-4 0  8916
2 19649 071.0008 302.9175 0007004 326.9997 033.0687 14.14562528337301
Epoch (UTC): 20 October 2014 13:08:46
Eccentricity: 0.0007004
inclination: 71.0008°
perigee height: 839 km
apogee height: 849 km
right ascension of ascending node: 302.9175°
argument of perigee: 326.9997°
revolutions per day: 14.14562528
mean anomaly at epoch: 33.0687°
orbit number at epoch: 33730

The dashed part of the orbit path shows where the satellite is in the earth's shadow,  

DLR